Weather History for CWBT - April, 2013

Change the Weather History Date:

Sunday, April 14, 2013

  Actual Average (CYGV) Record (CYGV)
Temperature  
Mean Temperature 32 °F -  
Max Temperature 39 °F 36 °F 51 °F (1998)
Min Temperature 24 °F 22 °F 6 °F (2003)
Degree Days  
Heating Degree Days 34    
Moisture  
Dew Point 26 °F    
Average Humidity 81    
Maximum Humidity 99    
Minimum Humidity 57    
Precipitation  
Precipitation 0.00 in - - ()
Sea Level Pressure  
Sea Level Pressure 30.09 in    
Wind  
Wind Speed 3 mph ()    
Max Wind Speed 8 mph    
Max Gust Speed -    
Averages and records for this station are not official NWS values.
T = Trace of Precipitation, MM = Missing Value Source: Averaged Metar Reports

Daily Weather History Graph

Daily Weather History Graph

Search for Another Location

Airport or City:

Trip Planner

Search our weather history database for the weather conditions in past years. The results will help you decide how hot, cold, wet, or windy it might be!

Date:

Astronomy

Apr. 14, 2013 Rise Set
Actual Time 5:25 AM EDT 7:10 PM EDT
Civil Twilight 4:50 AM EDT 7:44 PM EDT
Nautical Twilight 4:08 AM EDT 8:26 PM EDT
Astronomical Twilight 3:22 AM EDT 9:13 PM EDT
Moon 7:40 AM EDT (4/14) 11:38 PM EDT (4/14)
Length of Visible Light 14h 53m
Length of Day
13h 44m
Waxing Crescent, 17% of the Moon is Illuminated
Apr 14
Waxing Crescent
Apr 18
First Quarter
Apr 25
Full
May 2
Last Quarter
May 9
New

Hourly Weather History & Observations

Time (EDT) Temp. Windchill Dew Point Humidity Pressure Visibility Wind Dir Wind Speed Gust Speed Precip Events Conditions
12:00 AM 24.6 °F - 24.3 °F 99% 30.03 in - ENE 2.3 mph - N/A   Unknown
1:00 AM 27.0 °F 23.0 °F 26.6 °F 99% 30.04 in - NE 3.5 mph - N/A   Unknown
2:00 AM 27 °F - 26 °F 95% 30.04 in - North 2.3 mph - -  
2:00 AM 26.8 °F - 26.1 °F 97% 30.04 in - North 2.3 mph - N/A   Unknown
3:00 AM 27.0 °F - 26.4 °F 98% 30.03 in - NE 2.3 mph - N/A   Unknown
4:00 AM 29.3 °F 25.6 °F 27.0 °F 91% 30.04 in - NE 3.5 mph - N/A   Unknown
5:00 AM 29.7 °F 26.1 °F 26.6 °F 88% 30.05 in - ENE 3.5 mph - N/A   Unknown
6:00 AM 30.2 °F 25.4 °F 24.6 °F 80% 30.06 in - ENE 4.6 mph - N/A   Unknown
7:00 AM 31.8 °F 27.3 °F 22.3 °F 68% 30.08 in - ENE 4.6 mph - N/A   Unknown
8:00 AM 33 °F - 23 °F 57% 30.09 in - East 6.9 mph - -  
8:00 AM 33.4 °F 27.3 °F 23.4 °F 67% 30.09 in - East 6.9 mph - N/A   Unknown
9:00 AM 33.8 °F 27.7 °F 25.0 °F 70% 30.10 in - East 6.9 mph - N/A   Unknown
10:00 AM 36.1 °F 31.4 °F 26.2 °F 67% 30.11 in - East 5.8 mph - N/A   Unknown
11:00 AM 38.7 °F 35.2 °F 26.8 °F 62% 30.11 in - ESE 4.6 mph - N/A   Unknown
12:00 PM 37.9 °F 32.7 °F 27.3 °F 66% 30.10 in - SE 6.9 mph - N/A   Unknown
1:00 PM 37.4 °F 31.4 °F 29.1 °F 72% 30.10 in - ESE 8.1 mph - N/A   Unknown
2:00 PM 36 °F - 29 °F 68% 30.10 in - ESE 6.9 mph - -  
2:00 PM 36.3 °F 30.8 °F 29.3 °F 76% 30.10 in - ESE 6.9 mph - N/A   Unknown
3:00 PM 37.2 °F 31.2 °F 29.1 °F 73% 30.10 in - SE 8.1 mph - N/A   Unknown
4:00 PM 35.8 °F 31.9 °F 29.3 °F 77% 30.09 in - SSE 4.6 mph - N/A   Unknown
5:00 PM 34.9 °F 32.0 °F 28.2 °F 77% 30.09 in - SSE 3.5 mph - N/A   Unknown
6:00 PM 34.9 °F - 27.1 °F 73% 30.10 in - SE 1.2 mph - N/A   Unknown
7:00 PM 31.3 °F - 26.6 °F 83% 30.12 in - SW 2.3 mph - N/A   Unknown
8:00 PM 28 °F - 26 °F 90% 30.14 in - WNW 2.3 mph - -  
8:00 PM 28.0 °F - 26.2 °F 93% 30.14 in - WNW 2.3 mph - N/A   Unknown
9:00 PM 26.6 °F - 25.3 °F 95% 30.15 in - Calm Calm - N/A   Unknown
10:00 PM 25.3 °F - 24.6 °F 97% 30.16 in - Calm Calm - N/A   Unknown
11:00 PM 24.1 °F - 23.4 °F 97% 30.16 in - Calm Calm - N/A   Unknown